Wetterstats.de || Aktuelle Messwerte || Aktuelle Wetterkarten NEU! || Radar / Satellit NEU! || Wetterarchiv || Langzeitwerte NEU! || Klim. Kenntage || Met. Ereignisse || Agrarwerte || Echtzeitwerte

Monatsübersicht für Oktober 2020 Diagramm
 
Wetter Information zur Wetteranzeige
Zeitraffer
Tageslänge (hh:mm)
Höchsttemperatur in °C
Uhrzeit
Tiefsttemperatur in °C
Uhrzeit
Luftfeuchte (max., in %)
Uhrzeit
Luftfeuchte (min., in %)
Uhrzeit
Luftdruck (max., in hPa)
Uhrzeit
Luftdruck (min., in hPa)
Uhrzeit
Luftdruck (Ø, in hPa)
Regenrate (max, mm/h)
Uhrzeit
Niederschlag in mm
Verdunstung in mm
Solar in W/m² (Ø)
Solar in W/m² (max.)
UV-Index (max.)
Sonnenscheindauer (hh:mm)
Windrichtung (Ø)
Windstärke (Ø in km/h)
Windstärke (Ø in bft)
Windböe (max., in km/h)
Uhrzeit
Windböe (max., in bft)
Uhrzeit
Taupunkt (max., in °C)
Uhrzeit
Taupunkt (min., in °C)
Uhrzeit
Windchill (min., in °C)
Uhrzeit
Gewitterindex (max.)
Uhrzeit
Waldbrandindex (max.)
Uhrzeit
Graslandfeuerindex (max.)
Uhrzeit
Staubsturm-Index (max.)
Uhrzeit
01
Zeitraffer
11:39
15.6
13:20 Uhr
8.7
08:50 Uhr

98
10:20 Uhr
82
13:25 Uhr
1013.9
00:00 Uhr

1003.4
23:40 Uhr
1008.1
0,000
00:00 Uhr
0,000
0.686
120
575
13:25 Uhr
1.7
12:55 Uhr

00:54:00
1,5
0
19,3
15:45 Uhr

3
12.7
13:20 Uhr
8.1
05:15 Uhr
7.7
09:10 Uhr
5
19:20 Uhr
0.0
00:00 Uhr
0.4
13:40 Uhr
0.0
00:00 Uhr
02
Zeitraffer
11:34
16.3
15:40 Uhr
12.6
05:35 Uhr

95
05:40 Uhr
78
15:30 Uhr
1003.5
00:30 Uhr

999.8
23:45 Uhr
1002.0
0,000
00:00 Uhr
0,000
0.610
62
248
13:10 Uhr
1.4
13:10 Uhr

00:02:00
4,3
1
30,6
16:45 Uhr

5
13.0
13:05 Uhr
11.6
20:05 Uhr
10.1
23:00 Uhr
5
00:00 Uhr
0.0
00:00 Uhr
0.7
15:20 Uhr
0.0
00:00 Uhr
03
Zeitraffer
11:30
21.4
15:45 Uhr
13.0
00:15 Uhr

92
00:30 Uhr
66
15:50 Uhr
999.8
00:00 Uhr

992.0
18:00 Uhr
995.1
0,000
00:00 Uhr
0,000
1.422
162
521
13:20 Uhr
1.7
13:10 Uhr

04:00:00
6,1
1
33,8
06:20 Uhr

5
15.4
14:45 Uhr
11.6
00:00 Uhr
8.6
06:30 Uhr
9
19:35 Uhr
0.5
15:25 Uhr
1.5
15:25 Uhr
0.0
00:00 Uhr
04
Zeitraffer
11:27
20.8
12:45 Uhr
10.8
23:35 Uhr

89
07:50 Uhr
49
13:15 Uhr
1005.1
23:05 Uhr

993.6
03:15 Uhr
998.4
0,000
00:00 Uhr
0,000
1.372
162
573
11:40 Uhr
1.4
11:40 Uhr

02:57:00
0,4
0
16,1
17:00 Uhr

3
13.6
00:00 Uhr
7.5
16:40 Uhr
10.8
23:35 Uhr
7
00:00 Uhr
0.9
12:40 Uhr
1.9
12:50 Uhr
0.0
00:00 Uhr
05
Zeitraffer
11:22
17.3
13:05 Uhr
8.3
05:40 Uhr

91
21:35 Uhr
70
09:55 Uhr
1005.8
01:45 Uhr

1002.4
14:00 Uhr
1004.0
2,400
17:20 Uhr
0,400
0.559
90
180
11:00 Uhr
0.7
12:45 Uhr

00:55:00
0,8
0
12,9
07:10 Uhr

2
12.2
12:45 Uhr
6.4
05:35 Uhr
8.3
05:40 Uhr
3
19:10 Uhr
0.6
10:40 Uhr
1.7
13:40 Uhr
0.0
00:00 Uhr
06
Zeitraffer
11:18
16.7
15:30 Uhr
10.3
05:15 Uhr

88
21:45 Uhr
62
16:50 Uhr
1004.2
01:30 Uhr

1001.6
22:35 Uhr
1003.0
2,400
21:45 Uhr
0,200
0.813
99
315
10:00 Uhr
0.8
12:05 Uhr

01:32:00
1,4
0
17,7
19:45 Uhr

3
11.9
14:40 Uhr
7.7
03:15 Uhr
10.3
05:15 Uhr
3
20:40 Uhr
0.6
16:25 Uhr
1.8
16:55 Uhr
0.0
00:00 Uhr
07
Zeitraffer
11:14
16.9
11:35 Uhr
11.3
23:30 Uhr

92
22:10 Uhr
71
11:35 Uhr
1014.5
23:55 Uhr

1001.8
00:00 Uhr
1007.4
9,600
14:10 Uhr
2,600
0.457
77
452
11:25 Uhr
1.3
13:45 Uhr

00:19:00
0,1
0
8,0
00:55 Uhr

2
13.1
14:50 Uhr
9.7
05:20 Uhr
11.3
23:30 Uhr
4
19:05 Uhr
0.6
11:45 Uhr
2.3
12:00 Uhr
0.0
00:00 Uhr
08
Zeitraffer
11:10
15.9
12:35 Uhr
9.8
07:15 Uhr

94
18:05 Uhr
63
12:30 Uhr
1018.1
09:00 Uhr

1012.6
22:45 Uhr
1015.5
2,400
16:35 Uhr
2,400
0.635
104
397
11:40 Uhr
1.5
12:25 Uhr

00:45:00
1,1
0
17,7
15:25 Uhr

3
12.6
23:20 Uhr
8.6
07:15 Uhr
9.8
07:15 Uhr
5
20:55 Uhr
0.0
00:00 Uhr
0.9
12:25 Uhr
0.0
00:00 Uhr
09
Zeitraffer
11:06
16.8
12:45 Uhr
10.9
06:30 Uhr

96
22:40 Uhr
70
13:05 Uhr
1019.4
12:10 Uhr

1012.3
00:25 Uhr
1016.7
2,400
00:10 Uhr
2,600
0.508
83
563
12:45 Uhr
1.6
12:40 Uhr

00:24:00
0,4
0
14,5
17:45 Uhr

3
13.2
02:45 Uhr
9.9
06:10 Uhr
10.9
06:30 Uhr
6
02:45 Uhr
0.0
00:00 Uhr
0.0
00:00 Uhr
0.0
00:00 Uhr
10
Zeitraffer
11:02
13.7
13:20 Uhr
7.4
23:55 Uhr

97
05:05 Uhr
64
17:05 Uhr
1019.2
22:55 Uhr

1015.0
01:15 Uhr
1017.0
0,000
00:00 Uhr
0,000
0.559
93
410
13:05 Uhr
1.0
12:00 Uhr

00:30:00
0,1
0
8,0
10:40 Uhr

2
11.3
00:00 Uhr
5.0
23:55 Uhr
7.4
23:55 Uhr
3
00:00 Uhr
0.0
00:00 Uhr
0.0
00:00 Uhr
0.0
00:00 Uhr
11
Zeitraffer
10:57
11.7
15:30 Uhr
5.6
02:45 Uhr

90
02:35 Uhr
72
14:50 Uhr
1019.1
00:00 Uhr

1017.3
07:15 Uhr
1018.0
0,000
00:00 Uhr
0,000
0.533
76
227
13:05 Uhr
0.6
13:05 Uhr

01:08:00
0,1
0
9,7
16:20 Uhr

2
7.6
16:45 Uhr
3.7
07:20 Uhr
5.6
02:45 Uhr
0
00:00 Uhr
0.0
00:00 Uhr
0.4
14:00 Uhr
0.0
00:00 Uhr
12
Zeitraffer
10:54
12.2
15:50 Uhr
5.2
23:50 Uhr

92
23:05 Uhr
72
15:50 Uhr
1018.2
00:05 Uhr

1016.6
16:45 Uhr
1017.2
0,000
00:00 Uhr
0,000
0.330
61
280
12:45 Uhr
0.8
12:50 Uhr

00:01:00
0,1
0
4,8
13:25 Uhr

1
8.3
10:15 Uhr
4.0
23:50 Uhr
5.2
23:50 Uhr
0
00:00 Uhr
0.0
00:00 Uhr
0.7
16:15 Uhr
0.0
00:00 Uhr
13
Zeitraffer
10:50
12.3
15:00 Uhr
2.5
07:00 Uhr

94
07:05 Uhr
73
15:00 Uhr
1016.9
00:00 Uhr

1013.6
23:45 Uhr
1015.5
0,000
00:00 Uhr
0,000
0.686
131
416
11:40 Uhr
1.0
12:50 Uhr

02:23:00
0,9
0
16,1
15:15 Uhr

3
8.3
17:10 Uhr
1.4
06:10 Uhr
2.5
07:00 Uhr
0
00:00 Uhr
0.0
00:00 Uhr
0.9
14:00 Uhr
0.0
00:00 Uhr
14
Zeitraffer
10:46
10.4
10:00 Uhr
9.7
01:15 Uhr

96
21:20 Uhr
83
04:50 Uhr
1013.5
00:00 Uhr

1007.6
13:05 Uhr
1009.4
2,400
05:30 Uhr
9,800
0.203
31
74
14:00 Uhr
0.0
00:00 Uhr

00:00:00
5,0
1
32,2
13:25 Uhr

5
9.7
23:45 Uhr
7.5
04:50 Uhr
5.8
14:45 Uhr
2
18:50 Uhr
0.0
00:00 Uhr
0.5
05:00 Uhr
0.0
00:00 Uhr
15
Zeitraffer
10:42
11.3
15:55 Uhr
9.7
23:20 Uhr

96
00:00 Uhr
88
17:20 Uhr
1019.4
23:15 Uhr

1010.7
00:00 Uhr
1015.3
2,400
02:45 Uhr
0,800
0.229
33
75
11:50 Uhr
0.0
00:00 Uhr

00:00:00
4,4
1
22,5
12:05 Uhr

4
10.0
14:00 Uhr
8.9
20:15 Uhr
7.3
15:30 Uhr
2
00:00 Uhr
0.0
00:00 Uhr
0.0
00:00 Uhr
0.0
00:00 Uhr


 
Wetter Information zur Wetteranzeige
Zeitraffer
Tageslänge (hh:mm)
Höchsttemperatur in °C
Uhrzeit
Tiefsttemperatur in °C
Uhrzeit
Luftfeuchte (max., in %)
Uhrzeit
Luftfeuchte (min., in %)
Uhrzeit
Luftdruck (max., in hPa)
Uhrzeit
Luftdruck (min., in hPa)
Uhrzeit
Luftdruck (Ø, in hPa)
Regenrate (max, mm/h)
Uhrzeit
Niederschlag in mm
Verdunstung in mm
Solar in W/m² (Ø)
Solar in W/m² (max.)
UV-Index (max.)
Sonnenscheindauer (hh:mm)
Windrichtung (Ø)
Windstärke (Ø in km/h)
Windstärke (Ø in bft)
Windböe (max., in km/h)
Uhrzeit
Windböe (max., in bft)
Uhrzeit
Taupunkt (max., in °C)
Uhrzeit
Taupunkt (min., in °C)
Uhrzeit
Windchill (min., in °C)
Uhrzeit
Gewitterindex (max.)
Uhrzeit
Waldbrandindex (max.)
Uhrzeit
Graslandfeuerindex (max.)
Uhrzeit
Staubsturm-Index (max.)
Uhrzeit
16
Zeitraffer
10:38
11.3
12:30 Uhr
8.3
23:30 Uhr

95
00:00 Uhr
83
12:30 Uhr
1020.3
08:50 Uhr

1019.3
00:00 Uhr
1019.7
2,400
01:50 Uhr
0,800
0.432
87
589
12:25 Uhr
1.0
12:25 Uhr

00:42:00
2,7
1
20,9
11:10 Uhr

4
9.0
00:00 Uhr
7.2
23:40 Uhr
7.0
04:10 Uhr
2
00:00 Uhr
0.0
00:00 Uhr
0.0
00:00 Uhr
0.0
00:00 Uhr
17
Zeitraffer
10:34
11.8
12:25 Uhr
7.7
02:10 Uhr

96
07:20 Uhr
68
14:00 Uhr
1019.5
00:05 Uhr

1017.8
23:45 Uhr
1018.6
2,400
02:40 Uhr
0,200
0.584
113
477
11:15 Uhr
1.1
12:20 Uhr

01:20:00
0,6
0
11,3
08:30 Uhr

2
8.1
11:25 Uhr
5.6
14:00 Uhr
6.6
08:30 Uhr
0
00:00 Uhr
0.0
00:00 Uhr
0.0
00:00 Uhr
0.0
00:00 Uhr
18
Zeitraffer
10:30
10.0
11:10 Uhr
6.3
06:09 Uhr

94
13:45 Uhr
83
11:05 Uhr
1019.7
23:35 Uhr

1015.8
07:35 Uhr
1017.3
2,400
13:35 Uhr
0,400
0.254
50
198
11:00 Uhr
0.5
10:55 Uhr

00:00:00
0,2
0
8,0
11:00 Uhr

2
8.9
14:20 Uhr
5.1
06:09 Uhr
6.3
06:09 Uhr
0
00:00 Uhr
0.0
00:00 Uhr
0.0
00:00 Uhr
0.0
00:00 Uhr
19
Zeitraffer
10:26
12.7
12:40 Uhr
6.4
06:15 Uhr

95
07:25 Uhr
71
14:00 Uhr
1022.9
12:15 Uhr

1019.6
00:00 Uhr
1021.8
2,400
08:45 Uhr
0,200
0.559
92
406
12:35 Uhr
1.0
12:35 Uhr

01:03:00
0,0
0
3,2
10:35 Uhr

1
8.7
09:50 Uhr
5.0
23:35 Uhr
6.4
06:15 Uhr
0
00:00 Uhr
0.0
00:00 Uhr
0.0
00:00 Uhr
0.0
00:00 Uhr
20
Zeitraffer
10:22
12.2
15:20 Uhr
5.3
06:55 Uhr

93
06:05 Uhr
72
15:10 Uhr
1022.1
00:05 Uhr

1012.3
18:00 Uhr
1016.3
2,400
20:35 Uhr
0,600
0.559
84
207
10:45 Uhr
0.7
12:50 Uhr

00:12:00
2,4
1
24,1
14:25 Uhr

4
9.6
23:05 Uhr
4.2
05:55 Uhr
5.3
06:55 Uhr
2
21:45 Uhr
0.0
00:00 Uhr
0.0
00:00 Uhr
0.0
00:00 Uhr
21
Zeitraffer
10:19
14.6
17:35 Uhr
10.3
05:40 Uhr

94
08:35 Uhr
71
23:40 Uhr
1012.5
00:00 Uhr

1007.1
18:15 Uhr
1009.7
2,400
00:15 Uhr
2,400
0.356
42
91
14:00 Uhr
0.0
00:00 Uhr

00:00:00
1,6
0
16,1
05:30 Uhr

3
10.2
16:30 Uhr
9.2
05:45 Uhr
10.3
05:40 Uhr
2
00:00 Uhr
0.0
00:00 Uhr
0.0
00:00 Uhr
0.0
00:00 Uhr
22
Zeitraffer
10:14
19.3
12:50 Uhr
14.1
04:15 Uhr

82
19:30 Uhr
68
12:40 Uhr
1013.9
12:00 Uhr

1008.1
00:00 Uhr
1011.5
0,000
00:00 Uhr
0,000
0.889
100
406
12:50 Uhr
1.0
12:25 Uhr

01:29:00
0,5
0
9,7
00:00 Uhr

2
13.7
16:35 Uhr
9.2
00:50 Uhr
14.1
04:15 Uhr
7
18:30 Uhr
0.0
00:00 Uhr
0.0
00:00 Uhr
0.0
00:00 Uhr
23
Zeitraffer
10:10
18.4
12:25 Uhr
12.2
23:40 Uhr

95
18:55 Uhr
71
12:00 Uhr
1013.1
09:50 Uhr

1009.3
21:10 Uhr
1011.6
24,000
19:25 Uhr
6,600
0.533
96
359
12:25 Uhr
0.9
12:15 Uhr

01:24:00
0,2
0
12,9
19:40 Uhr

2
14.4
19:00 Uhr
10.8
08:15 Uhr
12.2
23:40 Uhr
8
18:30 Uhr
0.0
00:00 Uhr
0.0
00:00 Uhr
0.0
00:00 Uhr
24
Zeitraffer
10:06
17.2
12:10 Uhr
11.4
07:40 Uhr

97
08:35 Uhr
72
15:45 Uhr
1014.0
11:50 Uhr

1011.3
00:20 Uhr
1012.8
0,000
00:00 Uhr
0,000
0.635
106
413
12:15 Uhr
0.9
12:05 Uhr

01:46:00
0,1
0
6,4
19:40 Uhr

1
12.9
11:40 Uhr
9.9
23:25 Uhr
11.4
07:40 Uhr
4
01:35 Uhr
0.0
00:00 Uhr
0.0
00:00 Uhr
0.0
00:00 Uhr
25
Zeitraffer
10:02
17.7
11:30 Uhr
10.5
06:55 Uhr

88
06:05 Uhr
63
11:35 Uhr
1012.8
00:00 Uhr

1004.6
23:15 Uhr
1008.5
0,000
00:00 Uhr
0,000
1.067
131
381
10:45 Uhr
0.8
11:10 Uhr

02:52:00
2,3
1
20,9
15:00 Uhr

4
11.0
11:20 Uhr
8.5
05:35 Uhr
10.1
07:35 Uhr
2
00:00 Uhr
0.0
00:00 Uhr
0.0
00:00 Uhr
0.0
00:00 Uhr
26
Zeitraffer
09:59
13.9
13:35 Uhr
10.7
23:45 Uhr

93
22:30 Uhr
80
13:35 Uhr
1005.9
23:55 Uhr

1002.3
13:20 Uhr
1004.0
2,400
08:15 Uhr
0,600
0.280
52
335
12:10 Uhr
0.6
12:15 Uhr

00:10:00
0,2
0
11,3
09:00 Uhr

2
11.1
12:20 Uhr
8.7
04:50 Uhr
10.7
23:45 Uhr
3
17:25 Uhr
0.0
00:00 Uhr
0.0
00:00 Uhr
0.0
00:00 Uhr
27
Zeitraffer
09:55
13.3
14:25 Uhr
8.8
03:50 Uhr

91
00:00 Uhr
67
14:25 Uhr
1009.9
18:45 Uhr

1005.8
00:00 Uhr
1008.5
0,000
00:00 Uhr
0,000
0.559
75
255
12:05 Uhr
0.6
12:00 Uhr

00:08:00
1,1
0
16,1
12:00 Uhr

3
9.3
00:00 Uhr
5.9
23:55 Uhr
7.2
23:55 Uhr
2
00:00 Uhr
0.0
00:00 Uhr
0.1
13:10 Uhr
0.0
00:00 Uhr
28
Zeitraffer
09:51
13.8
14:10 Uhr
9.1
02:20 Uhr

87
22:45 Uhr
74
12:45 Uhr
1011.0
19:50 Uhr

1007.8
03:40 Uhr
1009.6
2,400
05:45 Uhr
0,200
0.610
72
318
11:45 Uhr
0.7
11:45 Uhr

00:05:00
1,5
0
20,9
03:50 Uhr

4
9.5
13:55 Uhr
5.4
02:35 Uhr
8.9
02:40 Uhr
2
17:20 Uhr
0.0
00:00 Uhr
0.3
14:45 Uhr
0.0
00:00 Uhr
29
Zeitraffer
09:47
12.9
11:30 Uhr
8.8
23:20 Uhr

93
07:00 Uhr
71
11:30 Uhr
1017.5
22:10 Uhr

1007.6
05:45 Uhr
1012.4
4,800
04:50 Uhr
2,600
0.483
89
350
11:40 Uhr
0.6
11:25 Uhr

01:35:00
0,5
0
12,9
04:55 Uhr

2
9.8
08:35 Uhr
5.9
23:00 Uhr
8.8
23:20 Uhr
2
06:10 Uhr
0.0
00:00 Uhr
0.0
00:00 Uhr
0.0
00:00 Uhr
30
Zeitraffer
09:43
13.7
20:30 Uhr
8.5
04:20 Uhr

97
14:30 Uhr
82
00:00 Uhr
1019.5
23:45 Uhr

1014.2
11:40 Uhr
1015.9
2,400
03:15 Uhr
8,400
0.102
24
57
11:30 Uhr
0.0
00:00 Uhr

00:00:00
0,3
0
12,9
05:20 Uhr

2
13.3
22:10 Uhr
5.8
00:05 Uhr
8.5
04:20 Uhr
6
20:30 Uhr
0.0
00:00 Uhr
0.0
00:00 Uhr
0.0
00:00 Uhr
31
Zeitraffer
09:40
14.8
14:55 Uhr
13.4
03:45 Uhr

98
08:35 Uhr
93
18:00 Uhr
1022.7
09:25 Uhr

1017.3
23:55 Uhr
1020.7
0,000
00:00 Uhr
2,800
0.152
33
78
09:55 Uhr
0.0
00:00 Uhr

00:00:00
0,6
0
16,1
23:55 Uhr

3
14.3
14:45 Uhr
12.6
23:40 Uhr
13.2
22:35 Uhr
6
17:15 Uhr
0.0
00:00 Uhr
0.0
00:00 Uhr
0.0
00:00 Uhr
Stationsstandorte || Wetterblog || Wissenswertes || Downloads || Seitenhistorie || Partner || Impressum / Datenschutz